Location: Moscow
(55.7500°N, 37.5830°E)
Time: 05:10:01
(UTC+03:00)

Vanguard 1 - Pass Details

Date: 06 December 2021
Orbit: 652 x 3830 km, 34.2° (Epoch: 21 January)

Event Time Altitude Azimuth Distance (km) Brightness Sun altitude
Rises 06:48:44 0° 275° (W) 7,814 - -14.6°
Exits shadow 06:55:32 - 263° (W) 6,773 13.8 -13.7°
Reaches altitude 10° 06:59:06 10° 254° (WSW) 6,273 13.7 -13.3°
Maximum altitude 07:05:32 13° 234° (SW) 5,560 13.6 -12.4°
Drops below altitude 10° 07:11:07 10° 213° (SSW) 5,276 13.7 -11.7°
Sets 07:17:59 0° 188° (S) 5,540 14.1 -10.8°
